Regional Weather Roundup
Issued by NWS

Home | Current Version | Previous Version | Text Only | Print | Product List | Glossary Off
Versions: 1 2 3 4 5 6 7 8 9 10 11 12 13 14 15 16 17 18 19 20 21 22 23 24 25 26 27 28 29 30 31 32 33 34 35 36 37 38 39 40 41 42 43 44 45 46 47 48 49 50

000
ASUS43 KMKX 200421
RWRWI

WISCONSIN REGIONAL WEATHER ROUNDUP
NATIONAL WEATHER SERVICE MILWAUKEE/SULLIVAN WI
1000 PM CST FRI DEC 19 2014

NOTE: "FAIR" INDICATES FEW OR NO CLOUDS BELOW 12,000 FEET WITH NO
SIGNIFICANT WEATHER AND/OR OBSTRUCTIONS TO VISIBILITY.

WIZ001-002-006>008-014>016-023>028-200500-
NORTHWEST WISCONSIN

CITY           SKY/WX    TMP DP  RH WIND       PRES   REMARKS
SUPERIOR ARPT  CLOUDY    27  24  89 CALM      30.19F
ASHLAND        CLOUDY    26  22  84 SE3       30.20F
HAYWARD        CLOUDY    25  20  81 S5        30.19R WCI  19
SIREN          CLOUDY    27  22  82 S7        30.18S WCI  19
CUMBERLAND     CLOUDY    27  21  80 S8        30.18S WCI  18
RICE LAKE      CLOUDY    27  22  83 SE5       30.21S WCI  21
CHETEK         CLOUDY    26  22  85 SE3       30.20S
LADYSMITH      CLOUDY    26  22  88 SE5       30.21S WCI  20
EAU CLAIRE     CLOUDY    27  20  75 SE6       30.21S WCI  20
MENOMONIE      CLOUDY    28  23  81 SE5       30.21S WCI  23
NEW RICHMOND   CLOUDY    28  25  89 SE8       30.19S WCI  19
OSCEOLA        CLOUDY    28  24  86 SE9       30.21S WCI  19
$$

WIZ003>005-009-010-017-018-200500-
NORTH CENTRAL WISCONSIN

CITY           SKY/WX    TMP DP  RH WIND       PRES   REMARKS
MANITOWISH WTR CLOUDY    21  20  96 CALM      30.18S
ARBOR VITAE    CLOUDY    22  19  89 SW5       30.18S WCI  16
WOODRUFF       CLOUDY    22  19  89 SW5       30.18S WCI  16
RHINELANDER    CLOUDY    19  17  92 CALM      30.19F
EAGLE RIVER    PTCLDY    12  11  95 CALM      30.18S
LAND O LAKES   CLOUDY    12  10  91 CALM      30.18F
PHILLIPS       CLOUDY    22  20  93 CALM      30.18F
TOMAHAWK       CLOUDY    22  20  91 CALM      30.20S
MEDFORD        CLOUDY    22  20  92 SE3       30.19S
MERRILL        CLOUDY    23  20  89 CALM      30.21S
$$

WIZ029-030-035-036-043>047-200500-
CENTRAL WISCONSIN

CITY           SKY/WX    TMP DP  RH WIND       PRES   REMARKS
WAUSAU         CLOUDY    23  19  85 CALM      30.20F
MOSINEE        CLOUDY    23  23 100 CALM      30.23R
MARSHFIELD     CLOUDY    24  20  84 SE3       30.21S
STEVENS POINT  CLOUDY    22  19  89 CALM      30.24R
WAUPACA        CLOUDY    27  21  80 CALM      30.25F
WAUTOMA        CLOUDY    25  21  84 CALM      30.25S
WISC RAPIDS    CLOUDY    22  19  89 CALM      30.24F
CAMP DOUGLAS   CLOUDY    25  25  99 SE3       30.24R
$$

WIZ011>013-019>022-031-037>040-048>050-200500-
NORTHEAST WISCONSIN

CITY           SKY/WX    TMP DP  RH WIND       PRES   REMARKS
ANTIGO         PTCLDY    14  13  95 CALM      30.20S
SHAWANO        CLEAR     21  18  88 CALM      30.26S
OCONTO         CLEAR     15  15  98 CALM      30.26F
STURGEON BAY   CLEAR     19  16  86 CALM      30.27S
GREEN BAY      CLEAR     22  19  89 CALM      30.26F
MANITOWOC      CLOUDY    28  24  85 N3        30.26F
APPLETON       PTCLDY    21  18  86 CALM      30.25S
CLINTONVILLE   CLEAR     19  18  93 CALM      30.25F
OSHKOSH        PTCLDY    22  17  81 CALM      30.25S
$$

WIZ032>034-041-042-053>061-200500-
SOUTHWEST WISCONSIN

CITY           SKY/WX    TMP DP  RH WIND       PRES   REMARKS
LA CROSSE      CLOUDY    30  21  69 SE8       30.24S WCI  22
SPARTA         CLOUDY    28  21  72 S3        30.25R
VIROQUA        CLOUDY    27  22  84 S5        30.21S WCI  21
BOSCOBEL       CLOUDY    29  23  78 CALM      30.26R
PRAIRIE DU CHI CLOUDY    28  22  77 E3        30.25S
PLATTEVILLE    CLOUDY    28  24  85 CALM      30.24S
$$

WIZ056-057-062-063-064-067-068-200500-
SOUTH CENTRAL WISCONSIN

CITY           SKY/WX    TMP DP  RH WIND       PRES   REMARKS
REEDSBURG      MOCLDY    22  20  92 CALM      30.24S
BARABOO/DELLS  MOCLDY    21  19  91 CALM      30.24S
LONE ROCK      CLOUDY    29  21  72 E5        30.26R WCI  24
MINERAL POINT  MOCLDY    28  23  80 SE3       30.23R
MADISON        CLOUDY    25  20  81 S5        30.25R WCI  19
MIDDLETON      CLOUDY    27  23  85 S3        30.25R
WATERTOWN      PTCLDY    20  19  93 CALM      30.25S
MONROE         CLOUDY    27  25  93 S3        30.23F
JANESVILLE     CLOUDY    28  23  80 CALM      30.25F
$$

WIZ051-052-058>065-066-070>072-200500-
SOUTHEAST WISCONSIN

CITY           SKY/WX    TMP DP  RH WIND       PRES   REMARKS
MILWAUKEE      CLOUDY    29  19  66 S5        30.26F WCI  24
WAUKESHA       MOCLDY    21  19  93 CALM      30.26S
MILWAUKEE/TIMM MOCLDY    27  19  74 S3        30.27R
RACINE         CLOUDY    28  20  71 CALM      30.28S
BURLINGTON     CLOUDY    24  19  82 CALM      30.26S
KENOSHA        CLOUDY    27  20  75 CALM      30.26F
FOND DU LAC    PTCLDY    22  18  85 CALM      30.25S
SHEBOYGAN      CLOUDY    28  21  75 N5        30.25F WCI  23
WEST BEND      PTCLDY    23  19  86 CALM      30.25S
JUNEAU         PTCLDY    22  19  87 E3        30.26R
$$

LSZ147-162-200500-
LAKE SUPERIOR

STATION/POSITION TIME  TEMP    WIND        PRES    WAVE
                       AIR SEA DIR/SP/G            HT/PER
                 (UTC) (F)     (DEG/KT/KT) (MB)    (FT/S)
DEVILS ISLAND    0400   27     180/  5/  7 1024.0F
PORT WING        0300   26      CALM  /  2 1023.0F
SAXON HARBOR     0300   25        CALM     1023.0F
$$

LMZ867-665-643>646-200500-
LAKE MICHIGAN

STATION/POSITION TIME  TEMP    WIND        PRES    WAVE
                       AIR SEA DIR/SP/G            HT/PER
                 (UTC) (F)     (DEG/KT/KT) (MB)    (FT/S)
CHAMBERS ISLAND  0300   19      CALM  /  3 1025.1F
NORTHPORT PIER   0324   24      CALM  /  1 1025.4F
SISTER BAY       0343             CALM       N/A
ALGOMA LAKESHORE 0214          300/  5/  7   N/A
KEWAUNEE LAKESHO 0300   28        CALM     1024.1F
SHEBOYGAN LAKESH 0400   29 34  300/  4/  4 1025.6F
PORT WASHINGTON  0300   30     320/  4/  5 1025.4
MILWAUKEE LAKESH 0400   29     190/  5/  7   N/A
KENOSHA   LAKESH 0400   28     270/  2/  4 1025.1S
$$

TC  - TEMPERATURE IN CELSIUS
VSB - VISIBILITY IN STATUTE MILES
WCI - WIND CHILL INDEX
HX  - HEAT INDEX



USA.gov is the U.S. government's official web portal to all federal, state and local government web resources and services.